QPF
0.08 0.08 0.09 0.10 0.13 0.15 0.15 0.15 0.14 0.14 0.10 0.09 0.07 0.09 0.11 0.11 0.13 0.19 0.25 0.36 0.27 0.15 0.11 0.08 0.05 0.03 0.01 0.01 0.01 0.00 0.00 0.01 0.01 0.01 0.01 0.01 0.01 0.01 0.00 0.00 0.00 0.00 0.00
0.10 0.09 0.10 0.11 0.11 0.11 0.10 0.09 0.10 0.11 0.12 0.11 0.09 0.10 0.12 0.10 0.12 0.15 0.15 0.22 0.23 0.18 0.14 0.10 0.07 0.05 0.03 0.01 0.01 0.01 0.00 0.00 0.00 0.00 0.01 0.01 0.01 0.01 0.00 0.00 0.00 0.00 0.00
0.08 0.08 0.09 0.10 0.11 0.10 0.09 0.07 0.08 0.10 0.11 0.10 0.08 0.08 0.11 0.13 0.10 0.11 0.14 0.14 0.16 0.18 0.18 0.13 0.11 0.08 0.06 0.03 0.02 0.01 0.01 0.01 0.00 0.00 0.00 0.01 0.00 0.00 0.00 0.00 0.00 0.00 0.00
0.05 0.06 0.08 0.10 0.10 0.09 0.09 0.08 0.07 0.08 0.09 0.09 0.08 0.06 0.07 0.14 0.14 0.11 0.14 0.12 0.11 0.10 0.13 0.14 0.11 0.09 0.08 0.06 0.04 0.02 0.01 0.01 0.01 0.01 0.00 0.00 0.00 0.00 0.00 0.00 0.00 0.00 0.00
0.04 0.05 0.06 0.08 0.08 0.08 0.07 0.06 0.06 0.07 0.07 0.08 0.08 0.08 0.08 0.08 0.11 0.12 0.14 0.12 0.10 0.09 0.10 0.10 0.11 0.09 0.09 0.08 0.07 0.04 0.02 0.01 0.01 0.01 0.01 0.01 0.01 0.00 0.00 0.00 0.00 0.00 0.00
0.03 0.03 0.04 0.05 0.06 0.08 0.08 0.08 0.07 0.07 0.06 0.07 0.08 0.09 0.09 0.09 0.09 0.09 0.09 0.10 0.11 0.11 0.12 0.11 0.09 0.08 0.09 0.08 0.08 0.08 0.05 0.02 0.01 0.01 0.01 0.01 0.01 0.00 0.00 0.00 0.00 0.00 0.00
0.03 0.03 0.03 0.03 0.04 0.05 0.06 0.07 0.08 0.09 0.08 0.07 0.08 0.08 0.07 0.07 0.08 0.08 0.09 0.11 0.10 0.10 0.10 0.11 0.11 0.08 0.07 0.08 0.09 0.08 0.07 0.06 0.03 0.02 0.01 0.01 0.01 0.01 0.00 0.00 0.00 0.00 0.00
0.02 0.03 0.03 0.01 0.02 0.03 0.04 0.04 0.05 0.06 0.08 0.10 0.09 0.09 0.09 0.08 0.06 0.07 0.08 0.09 0.08 0.09 0.08 0.07 0.09 0.10 0.08 0.07 0.05 0.07 0.08 0.09 0.08 0.05 0.03 0.03 0.02 0.01 0.01 0.00 0.00 0.00 0.00
0.01 0.01 0.01 0.01 0.01 0.01 0.02 0.03 0.03 0.02 0.03 0.07 0.10 0.08 0.06 0.06 0.06 0.05 0.06 0.07 0.10 0.10 0.08 0.07 0.07 0.09 0.11 0.11 0.08 0.08 0.11 0.09 0.10 0.10 0.08 0.05 0.03 0.02 0.02 0.01 0.01 0.00 0.00
0.00 0.00 0.00 0.01 0.01 0.01 0.02 0.03 0.03 0.03 0.02 0.03 0.05 0.06 0.06 0.07 0.06 0.05 0.05 0.08 0.10 0.11 0.09 0.08 0.08 0.09 0.11 0.12 0.11 0.10 0.10 0.11 0.12 0.12 0.10 0.06 0.04 0.02 0.01 0.02 0.01 0.01 0.00
0.01 0.01 0.01 0.01 0.00 0.00 0.01 0.01 0.01 0.01 0.01 0.01 0.02 0.03 0.04 0.06 0.07 0.05 0.04 0.05 0.07 0.08 0.09 0.09 0.11 0.11 0.10 0.10 0.10 0.11 0.16 0.15 0.13 0.14 0.14 0.10 0.06 0.04 0.03 0.02 0.02 0.02 0.01
0.00 0.00 0.00 0.00 0.00 0.00 0.00 0.00 0.00 0.01 0.00 0.00 0.00 0.01 0.03 0.05 0.05 0.04 0.03 0.02 0.03 0.04 0.06 0.07 0.10 0.12 0.13 0.12 0.11 0.14 0.17 0.18 0.15 0.14 0.15 0.15 0.10 0.07 0.05 0.04 0.03 0.02 0.01
0.00 0.00 0.00 0.00 0.00 0.00 0.00 0.00 0.00 0.00 0.00 0.00 0.00 0.00 0.01 0.01 0.02 0.02 0.02 0.02 0.02 0.02 0.03 0.05 0.07 0.10 0.12 0.14 0.15 0.18 0.19 0.17 0.14 0.13 0.13 0.14 0.12 0.11 0.08 0.07 0.06 0.05 0.04
0.00 0.00 0.00 0.00 0.00 0.00 0.00 0.00 0.00 0.00 0.00 0.00 0.00 0.00 0.00 0.01 0.01 0.02 0.01 0.02 0.02 0.02 0.02 0.02 0.05 0.07 0.09 0.09 0.13 0.19 0.20 0.18 0.15 0.11 0.11 0.13 0.12 0.11 0.10 0.08 0.07 0.07 0.06
0.00 0.00 0.00 0.00 0.00 0.00 0.00 0.00 0.00 0.00 0.00 0.00 0.00 0.00 0.00 0.00 0.00 0.01 0.01 0.02 0.02 0.02 0.01 0.01 0.02 0.04 0.06 0.08 0.13 0.15 0.17 0.17 0.14 0.13 0.11 0.11 0.11 0.10 0.09 0.07 0.06 0.05 0.05
0.00 0.00 0.00 0.00 0.00 0.00 0.00 0.00 0.00 0.00 0.00 0.00 0.00 0.00 0.00 0.00 0.00 0.00 0.00 0.01 0.02 0.02 0.02 0.01 0.01 0.03 0.05 0.07 0.10 0.13 0.15 0.17 0.15 0.12 0.11 0.10 0.11 0.10 0.09 0.07 0.06 0.05 0.04
0.00 0.00 0.00 0.00 0.00 0.00 0.00 0.00 0.00 0.00 0.00 0.00 0.00 0.00 0.00 0.00 0.00 0.00 0.01 0.01 0.02 0.02 0.02 0.02 0.01 0.01 0.02 0.04 0.06 0.10 0.13 0.13 0.14 0.12 0.09 0.07 0.09 0.10 0.10 0.08 0.06 0.05 0.04
0.00 0.00 0.00 0.00 0.00 0.00 0.00 0.00 0.00 0.00 0.00 0.00 0.00 0.00 0.00 0.00 0.00 0.01 0.01 0.01 0.01 0.01 0.01 0.01 0.01 0.01 0.01 0.02 0.03 0.06 0.09 0.09 0.11 0.11 0.09 0.07 0.06 0.07 0.09 0.08 0.08 0.07 0.04
0.00 0.00 0.00 0.00 0.00 0.00 0.00 0.00 0.00 0.00 0.00 0.00 0.00 0.00 0.00 0.00 0.00 0.00 0.01 0.01 0.01 0.01 0.01 0.01 0.01 0.01 0.01 0.02 0.03 0.05 0.06 0.07 0.10 0.12 0.12 0.10 0.08 0.06 0.06 0.06 0.06 0.06 0.06
0.00 0.00 0.00 0.00 0.00 0.00 0.00 0.00 0.00 0.00 0.00 0.00 0.00 0.00 0.00 0.00 0.00 0.00 0.01 0.02 0.02 0.01 0.01 0.01 0.01 0.01 0.01 0.02 0.03 0.04 0.05 0.07 0.09 0.10 0.10 0.11 0.10 0.08 0.06 0.05 0.05 0.05 0.05
0.00 0.00 0.00 0.00 0.00 0.00 0.00 0.00 0.00 0.00 0.00 0.00 0.00 0.00 0.00 0.00 0.00 0.01 0.01 0.02 0.02 0.02 0.02 0.02 0.01 0.01 0.01 0.02 0.02 0.05 0.06 0.09 0.12 0.12 0.11 0.09 0.10 0.08 0.06 0.05 0.05 0.04 0.04
0.00 0.00 0.00 0.00 0.00 0.00 0.00 0.00 0.00 0.00 0.00 0.00 0.00 0.00 0.00 0.00 0.00 0.01 0.01 0.01 0.01 0.02 0.02 0.03 0.02 0.02 0.01 0.02 0.02 0.04 0.08 0.09 0.11 0.15 0.16 0.12 0.09 0.09 0.07 0.04 0.04 0.03 0.03
0.00 0.00 0.00 0.00 0.00 0.00 0.00 0.00 0.00 0.00 0.00 0.00 0.00 0.00 0.00 0.00 0.01 0.01 0.01 0.01 0.02 0.03 0.03 0.02 0.02 0.01 0.01 0.02 0.04 0.04 0.05 0.07 0.08 0.11 0.16 0.18 0.14 0.10 0.08 0.06 0.06 0.05 0.05
0.00 0.00 0.00 0.00 0.00 0.00 0.00 0.00 0.00 0.00 0.00 0.00 0.00 0.00 0.01 0.01 0.01 0.01 0.02 0.02 0.02 0.03 0.04 0.03 0.02 0.02 0.02 0.03 0.04 0.05 0.07 0.07 0.08 0.11 0.12 0.15 0.15 0.14 0.11 0.08 0.07 0.07 0.07
0.00 0.00 0.00 0.00 0.00 0.00 0.00 0.00 0.00 0.00 0.00 0.00 0.00 0.00 0.01 0.01 0.00 0.01 0.01 0.02 0.02 0.04 0.04 0.04 0.03 0.03 0.03 0.03 0.04 0.05 0.08 0.09 0.08 0.10 0.11 0.12 0.14 0.15 0.15 0.13 0.09 0.08 0.07
0.00 0.00 0.00 0.00 0.00 0.00 0.00 0.00 0.00 0.00 0.00 0.00 0.01 0.01 0.01 0.00 0.00 0.00 0.01 0.01 0.02 0.03 0.03 0.03 0.02 0.02 0.02 0.02 0.04 0.06 0.08 0.09 0.08 0.08 0.11 0.13 0.13 0.16 0.18 0.16 0.13 0.09 0.07
MSLP
1016.91 1016.98 1016.94 1016.81 1016.64 1016.47 1016.36 1016.32 1016.37 1016.51 1016.71 1016.94 1017.18 1017.42 1017.63 1017.83 1018.00 1018.17 1018.34 1018.53 1018.74 1018.97 1019.22 1019.48 1019.74 1019.98 1020.20 1020.39 1020.55 1020.68 1020.80 1020.92 1021.06 1021.24 1021.46 1021.73 1022.03 1022.34 1022.65 1022.94 1023.20 1023.42 1023.63
1016.95 1017.03 1017.00 1016.89 1016.72 1016.55 1016.42 1016.35 1016.37 1016.47 1016.65 1016.88 1017.14 1017.39 1017.62 1017.81 1017.97 1018.11 1018.24 1018.38 1018.54 1018.74 1018.98 1019.24 1019.52 1019.80 1020.05 1020.26 1020.43 1020.56 1020.67 1020.78 1020.91 1021.09 1021.32 1021.60 1021.92 1022.26 1022.60 1022.91 1023.18 1023.41 1023.62
1016.92 1017.01 1017.02 1016.95 1016.83 1016.68 1016.54 1016.46 1016.45 1016.53 1016.69 1016.90 1017.15 1017.40 1017.62 1017.79 1017.92 1018.01 1018.07 1018.13 1018.23 1018.37 1018.57 1018.82 1019.11 1019.42 1019.70 1019.95 1020.15 1020.31 1020.43 1020.54 1020.68 1020.85 1021.09 1021.39 1021.73 1022.10 1022.46 1022.79 1023.09 1023.34 1023.56
1016.83 1016.97 1017.03 1017.03 1016.97 1016.86 1016.75 1016.67 1016.64 1016.69 1016.81 1017.00 1017.22 1017.44 1017.64 1017.78 1017.85 1017.86 1017.84 1017.82 1017.82 1017.88 1018.02 1018.24 1018.52 1018.84 1019.16 1019.45 1019.70 1019.90 1020.05 1020.19 1020.34 1020.54 1020.79 1021.10 1021.46 1021.85 1022.24 1022.60 1022.92 1023.20 1023.44
1016.76 1016.93 1017.07 1017.15 1017.16 1017.12 1017.04 1016.96 1016.92 1016.93 1017.01 1017.16 1017.34 1017.52 1017.68 1017.77 1017.78 1017.72 1017.60 1017.47 1017.37 1017.33 1017.38 1017.54 1017.79 1018.11 1018.45 1018.78 1019.08 1019.33 1019.54 1019.72 1019.91 1020.13 1020.41 1020.74 1021.12 1021.53 1021.94 1022.33 1022.69 1023.00 1023.27
1016.74 1016.95 1017.15 1017.31 1017.39 1017.41 1017.37 1017.30 1017.24 1017.22 1017.26 1017.36 1017.49 1017.64 1017.75 1017.80 1017.75 1017.61 1017.40 1017.16 1016.94 1016.79 1016.74 1016.81 1017.00 1017.29 1017.63 1017.99 1018.33 1018.63 1018.90 1019.14 1019.38 1019.65 1019.95 1020.31 1020.71 1021.14 1021.58 1022.00 1022.39 1022.73 1023.04
1016.81 1017.04 1017.28 1017.49 1017.64 1017.70 1017.69 1017.63 1017.56 1017.51 1017.51 1017.56 1017.67 1017.78 1017.86 1017.87 1017.78 1017.58 1017.30 1016.96 1016.62 1016.35 1016.18 1016.15 1016.26 1016.48 1016.79 1017.15 1017.51 1017.85 1018.17 1018.47 1018.77 1019.08 1019.42 1019.81 1020.24 1020.69 1021.15 1021.59 1022.01 1022.39 1022.74
1016.96 1017.19 1017.44 1017.68 1017.86 1017.95 1017.96 1017.90 1017.81 1017.74 1017.72 1017.75 1017.83 1017.93 1018.00 1018.00 1017.89 1017.66 1017.32 1016.90 1016.47 1016.09 1015.80 1015.65 1015.64 1015.78 1016.02 1016.34 1016.69 1017.05 1017.39 1017.73 1018.07 1018.43 1018.81 1019.23 1019.68 1020.15 1020.63 1021.10 1021.54 1021.96 1022.34
1017.17 1017.37 1017.61 1017.84 1018.01 1018.11 1018.12 1018.06 1017.97 1017.89 1017.86 1017.89 1017.97 1018.07 1018.15 1018.16 1018.06 1017.82 1017.46 1017.01 1016.51 1016.04 1015.64 1015.36 1015.23 1015.25 1015.39 1015.63 1015.93 1016.27 1016.61 1016.96 1017.32 1017.70 1018.11 1018.55 1019.02 1019.51 1020.01 1020.49 1020.96 1021.40 1021.82
1017.42 1017.55 1017.74 1017.93 1018.07 1018.15 1018.15 1018.09 1018.01 1017.93 1017.91 1017.95 1018.04 1018.17 1018.28 1018.32 1018.25 1018.04 1017.69 1017.23 1016.70 1016.17 1015.68 1015.30 1015.05 1014.94 1014.96 1015.09 1015.30 1015.56 1015.86 1016.19 1016.54 1016.92 1017.34 1017.79 1018.27 1018.77 1019.27 1019.77 1020.26 1020.73 1021.18
1017.64 1017.70 1017.81 1017.94 1018.04 1018.08 1018.07 1018.01 1017.93 1017.87 1017.86 1017.92 1018.04 1018.19 1018.33 1018.42 1018.39 1018.23 1017.92 1017.49 1016.97 1016.42 1015.89 1015.43 1015.07 1014.84 1014.73 1014.73 1014.82 1014.98 1015.19 1015.46 1015.77 1016.12 1016.52 1016.96 1017.44 1017.94 1018.45 1018.95 1019.45 1019.94 1020.41
1017.81 1017.79 1017.82 1017.87 1017.92 1017.93 1017.90 1017.84 1017.77 1017.72 1017.73 1017.80 1017.94 1018.11 1018.28 1018.39 1018.42 1018.31 1018.06 1017.69 1017.22 1016.69 1016.15 1015.65 1015.23 1014.90 1014.67 1014.53 1014.49 1014.52 1014.63 1014.80 1015.04 1015.34 1015.70 1016.11 1016.57 1017.06 1017.57 1018.08 1018.58 1019.08 1019.57
1017.90 1017.80 1017.76 1017.75 1017.74 1017.72 1017.68 1017.62 1017.56 1017.52 1017.53 1017.61 1017.74 1017.91 1018.08 1018.22 1018.28 1018.22 1018.04 1017.74 1017.34 1016.88 1016.38 1015.89 1015.44 1015.04 1014.72 1014.47 1014.30 1014.20 1014.18 1014.25 1014.39 1014.62 1014.92 1015.30 1015.72 1016.19 1016.69 1017.19 1017.70 1018.20 1018.70
1017.89 1017.74 1017.65 1017.58 1017.54 1017.50 1017.44 1017.38 1017.33 1017.29 1017.30 1017.35 1017.46 1017.60 1017.74 1017.87 1017.94 1017.92 1017.80 1017.59 1017.28 1016.91 1016.48 1016.04 1015.60 1015.19 1014.81 1014.48 1014.20 1013.99 1013.86 1013.81 1013.86 1014.00 1014.24 1014.56 1014.95 1015.39 1015.86 1016.35 1016.85 1017.35 1017.85
1017.81 1017.63 1017.50 1017.41 1017.34 1017.28 1017.23 1017.16 1017.11 1017.06 1017.05 1017.06 1017.12 1017.20 1017.29 1017.38 1017.43 1017.42 1017.35 1017.21 1017.00 1016.73 1016.40 1016.04 1015.66 1015.27 1014.87 1014.50 1014.16 1013.86 1013.64 1013.49 1013.45 1013.52 1013.68 1013.94 1014.28 1014.68 1015.12 1015.59 1016.07 1016.56 1017.05
1017.66 1017.48 1017.34 1017.23 1017.15 1017.09 1017.03 1016.97 1016.91 1016.84 1016.79 1016.75 1016.74 1016.74 1016.76 1016.78 1016.79 1016.78 1016.73 1016.65 1016.52 1016.34 1016.12 1015.85 1015.55 1015.21 1014.85 1014.47 1014.11 1013.77 1013.48 1013.27 1013.16 1013.15 1013.25 1013.45 1013.73 1014.08 1014.48 1014.91 1015.35 1015.82 1016.29
1017.47 1017.30 1017.16 1017.05 1016.97 1016.91 1016.85 1016.79 1016.71 1016.63 1016.54 1016.44 1016.36 1016.28 1016.22 1016.16 1016.11 1016.07 1016.02 1015.96 1015.88 1015.78 1015.65 1015.48 1015.26 1014.99 1014.69 1014.35 1014.00 1013.66 1013.35 1013.11 1012.95 1012.89 1012.93 1013.06 1013.28 1013.56 1013.89 1014.27 1014.67 1015.09 1015.53
1017.25 1017.09 1016.96 1016.86 1016.78 1016.72 1016.66 1016.59 1016.51 1016.40 1016.28 1016.14 1015.99 1015.85 1015.71 1015.58 1015.46 1015.37 1015.29 1015.23 1015.17 1015.12 1015.04 1014.94 1014.80 1014.61 1014.37 1014.10 1013.80 1013.49 1013.20 1012.96 1012.78 1012.68 1012.66 1012.73 1012.87 1013.07 1013.32 1013.61 1013.95 1014.31 1014.71
1017.01 1016.87 1016.75 1016.65 1016.57 1016.50 1016.44 1016.36 1016.27 1016.15 1016.00 1015.84 1015.65 1015.46 1015.26 1015.07 1014.90 1014.75 1014.63 1014.54 1014.47 1014.41 1014.36 1014.30 1014.21 1014.08 1013.92 1013.72 1013.48 1013.24 1013.00 1012.78 1012.60 1012.47 1012.41 1012.40 1012.45 1012.55 1012.69 1012.89 1013.13 1013.43 1013.77
1016.76 1016.62 1016.50 1016.40 1016.32 1016.24 1016.16 1016.08 1015.98 1015.85 1015.70 1015.53 1015.33 1015.12 1014.89 1014.67 1014.45 1014.25 1014.07 1013.92 1013.80 1013.71 1013.64 1013.58 1013.52 1013.44 1013.34 1013.21 1013.06 1012.90 1012.72 1012.54 1012.38 1012.23 1012.12 1012.03 1011.98 1011.96 1011.98 1012.06 1012.20 1012.40 1012.68
1016.50 1016.36 1016.24 1016.13 1016.03 1015.93 1015.84 1015.74 1015.63 1015.50 1015.36 1015.20 1015.02 1014.81 1014.58 1014.34 1014.09 1013.84 1013.61 1013.39 1013.21 1013.06 1012.94 1012.85 1012.78 1012.73 1012.68 1012.62 1012.56 1012.47 1012.37 1012.25 1012.10 1011.95 1011.78 1011.60 1011.44 1011.29 1011.18 1011.12 1011.14 1011.25 1011.47
1016.23 1016.10 1015.97 1015.84 1015.72 1015.60 1015.47 1015.35 1015.23 1015.11 1014.98 1014.85 1014.69 1014.51 1014.30 1014.06 1013.79 1013.51 1013.21 1012.93 1012.66 1012.43 1012.25 1012.12 1012.03 1011.99 1011.98 1011.99 1012.00 1012.00 1011.97 1011.90 1011.78 1011.61 1011.39 1011.13 1010.85 1010.56 1010.31 1010.12 1010.01 1010.03 1010.18
1015.97 1015.83 1015.70 1015.55 1015.40 1015.25 1015.10 1014.95 1014.82 1014.69 1014.58 1014.46 1014.34 1014.19 1014.00 1013.77 1013.50 1013.19 1012.85 1012.49 1012.15 1011.85 1011.59 1011.40 1011.29 1011.25 1011.27 1011.34 1011.42 1011.50 1011.54 1011.52 1011.43 1011.24 1010.97 1010.63 1010.24 1009.82 1009.44 1009.11 1008.90 1008.83 1008.91
1015.71 1015.58 1015.43 1015.27 1015.10 1014.92 1014.74 1014.56 1014.41 1014.27 1014.16 1014.06 1013.96 1013.84 1013.67 1013.46 1013.18 1012.85 1012.46 1012.06 1011.65 1011.28 1010.96 1010.73 1010.59 1010.55 1010.60 1010.71 1010.85 1011.00 1011.10 1011.13 1011.05 1010.86 1010.55 1010.13 1009.65 1009.13 1008.62 1008.19 1007.89 1007.74 1007.77
1015.46 1015.34 1015.19 1015.02 1014.83 1014.62 1014.41 1014.21 1014.04 1013.89 1013.77 1013.68 1013.58 1013.47 1013.31 1013.10 1012.82 1012.46 1012.05 1011.60 1011.15 1010.72 1010.36 1010.09 1009.94 1009.90 1009.97 1010.12 1010.32 1010.51 1010.66 1010.72 1010.66 1010.46 1010.12 1009.65 1009.10 1008.50 1007.92 1007.41 1007.04 1006.84 1006.84
1015.22 1015.10 1014.96 1014.79 1014.59 1014.37 1014.14 1013.92 1013.73 1013.56 1013.43 1013.32 1013.22 1013.10 1012.94 1012.72 1012.42 1012.05 1011.61 1011.13 1010.64 1010.19 1009.80 1009.51 1009.35 1009.32 1009.40 1009.58 1009.80 1010.03 1010.21 1010.29 1010.24 1010.03 1009.68 1009.18 1008.59 1007.95 1007.33 1006.79 1006.38 1006.15 1006.13
Thickness
5731 5731 5730 5730 5729 5728 5729 5729 5729 5728 5728 5728 5728 5729 5728 5729 5730 5730 5731 5731 5730 5730 5729 5728 5728 5728 5728 5728 5728 5727 5727 5726 5726 5726 5725 5725 5724 5723 5723 5722 5721 5721 5720
5726 5725 5725 5724 5724 5724 5724 5725 5725 5725 5724 5725 5725 5725 5725 5725 5726 5727 5728 5728 5729 5729 5728 5727 5726 5726 5726 5726 5726 5726 5726 5726 5725 5725 5725 5724 5724 5723 5722 5721 5721 5720 5719
5721 5720 5719 5719 5718 5719 5720 5720 5721 5720 5720 5720 5721 5721 5721 5721 5721 5723 5725 5725 5725 5726 5726 5725 5724 5725 5725 5725 5725 5725 5725 5725 5725 5724 5724 5724 5723 5722 5722 5721 5720 5720 5719
5716 5715 5714 5714 5714 5714 5715 5715 5715 5715 5715 5715 5715 5717 5718 5717 5718 5720 5721 5721 5722 5723 5724 5724 5723 5724 5723 5724 5724 5724 5724 5724 5724 5724 5724 5723 5723 5722 5721 5720 5720 5719 5719
5711 5710 5709 5709 5709 5709 5709 5709 5709 5709 5709 5709 5710 5712 5713 5714 5714 5716 5717 5718 5719 5720 5722 5722 5722 5722 5722 5722 5723 5723 5723 5723 5722 5722 5723 5723 5722 5722 5721 5720 5720 5719 5719
5705 5704 5703 5703 5703 5702 5702 5703 5703 5704 5703 5704 5705 5707 5708 5710 5711 5712 5714 5715 5716 5717 5718 5719 5720 5720 5720 5721 5722 5722 5722 5722 5722 5721 5722 5722 5722 5721 5721 5720 5719 5719 5718
5699 5698 5698 5697 5696 5695 5696 5696 5696 5696 5697 5698 5697 5697 5701 5705 5707 5709 5710 5711 5713 5714 5715 5716 5717 5718 5718 5719 5720 5721 5722 5722 5721 5721 5721 5721 5721 5721 5720 5720 5719 5718 5718
5694 5693 5692 5691 5691 5690 5689 5690 5689 5688 5689 5691 5689 5686 5686 5692 5699 5704 5705 5706 5708 5710 5712 5713 5714 5715 5716 5717 5719 5719 5720 5721 5721 5720 5720 5720 5721 5721 5720 5719 5719 5718 5718
5688 5687 5687 5686 5685 5684 5682 5682 5682 5681 5679 5682 5683 5681 5678 5677 5685 5693 5698 5701 5703 5704 5707 5709 5711 5713 5714 5715 5717 5718 5719 5719 5720 5720 5720 5720 5720 5720 5720 5719 5718 5718 5717
5682 5681 5680 5679 5678 5677 5676 5676 5676 5675 5674 5672 5675 5677 5677 5677 5675 5677 5686 5691 5695 5698 5700 5704 5707 5709 5710 5712 5714 5716 5717 5718 5718 5718 5719 5719 5719 5719 5719 5718 5718 5717 5717
5676 5675 5673 5672 5671 5670 5669 5669 5669 5668 5667 5666 5666 5667 5669 5670 5671 5669 5670 5678 5684 5690 5694 5698 5701 5704 5706 5708 5711 5713 5714 5716 5717 5717 5717 5718 5718 5718 5718 5718 5717 5717 5716
5668 5668 5667 5666 5665 5664 5663 5662 5662 5661 5661 5660 5660 5660 5660 5660 5660 5662 5662 5666 5671 5679 5686 5691 5694 5697 5700 5703 5706 5709 5711 5713 5714 5715 5716 5716 5717 5717 5717 5717 5717 5716 5716
5660 5660 5660 5659 5658 5658 5657 5656 5655 5655 5654 5654 5654 5653 5654 5654 5655 5655 5655 5657 5661 5667 5674 5681 5687 5690 5694 5697 5701 5704 5707 5709 5711 5712 5714 5715 5716 5716 5715 5716 5716 5716 5716
5655 5655 5654 5653 5653 5652 5651 5650 5649 5648 5648 5648 5648 5648 5647 5648 5648 5649 5649 5649 5650 5654 5661 5669 5676 5681 5685 5689 5693 5697 5700 5704 5706 5709 5711 5712 5713 5714 5714 5714 5715 5715 5716
5653 5651 5650 5648 5647 5646 5645 5644 5642 5642 5641 5641 5641 5641 5640 5641 5642 5642 5643 5643 5642 5642 5647 5656 5663 5671 5676 5680 5685 5688 5692 5697 5700 5703 5706 5709 5710 5711 5712 5713 5713 5714 5714
5649 5647 5645 5643 5642 5641 5640 5638 5636 5635 5634 5634 5633 5633 5633 5633 5634 5634 5635 5635 5636 5637 5638 5646 5652 5659 5665 5671 5676 5680 5684 5688 5693 5697 5700 5703 5705 5708 5709 5711 5712 5712 5713
5646 5643 5641 5639 5637 5635 5634 5632 5630 5629 5627 5626 5626 5625 5625 5625 5625 5625 5626 5626 5627 5629 5631 5637 5642 5649 5654 5660 5666 5671 5676 5681 5686 5690 5694 5698 5701 5703 5706 5708 5710 5710 5711
5643 5640 5637 5634 5632 5630 5627 5625 5623 5622 5620 5619 5618 5617 5616 5617 5616 5616 5616 5617 5618 5620 5622 5626 5631 5636 5643 5649 5655 5661 5667 5673 5678 5684 5689 5693 5696 5699 5702 5705 5707 5708 5709
5639 5636 5633 5630 5627 5625 5622 5619 5617 5615 5613 5612 5610 5609 5608 5607 5607 5607 5607 5608 5609 5612 5614 5616 5621 5625 5631 5638 5644 5651 5658 5664 5671 5677 5682 5687 5691 5695 5698 5701 5703 5705 5707
5637 5633 5630 5627 5624 5621 5618 5615 5612 5609 5606 5605 5603 5601 5600 5599 5599 5598 5599 5599 5600 5601 5603 5607 5610 5614 5620 5626 5632 5638 5645 5654 5661 5669 5675 5680 5684 5689 5693 5697 5700 5702 5704
5636 5632 5628 5624 5621 5617 5614 5610 5607 5604 5600 5597 5596 5594 5594 5594 5593 5592 5592 5591 5591 5591 5593 5596 5600 5604 5609 5614 5620 5628 5634 5642 5651 5659 5665 5672 5677 5682 5687 5691 5695 5698 5700
5634 5629 5625 5621 5617 5615 5612 5607 5603 5598 5594 5591 5589 5588 5587 5587 5587 5587 5586 5586 5585 5584 5585 5587 5590 5594 5600 5605 5611 5617 5623 5630 5639 5649 5654 5661 5668 5674 5681 5686 5692 5695 5697
5631 5627 5623 5619 5615 5611 5608 5604 5600 5594 5589 5586 5583 5581 5581 5582 5581 5579 5578 5579 5579 5581 5582 5582 5585 5589 5593 5598 5603 5608 5614 5621 5630 5639 5644 5652 5660 5667 5674 5680 5685 5689 5692
5629 5625 5621 5617 5613 5609 5606 5601 5596 5591 5585 5582 5579 5577 5574 5574 5574 5572 5571 5570 5571 5573 5575 5578 5581 5585 5588 5592 5596 5602 5606 5613 5622 5629 5636 5642 5651 5658 5665 5672 5677 5682 5685
5628 5624 5620 5615 5610 5607 5603 5598 5593 5586 5581 5578 5576 5573 5571 5569 5568 5567 5564 5563 5564 5565 5569 5572 5576 5579 5583 5587 5591 5594 5598 5603 5611 5620 5628 5634 5642 5648 5655 5662 5669 5674 5678
5626 5622 5618 5614 5609 5605 5601 5596 5590 5583 5578 5575 5572 5569 5567 5565 5564 5562 5559 5557 5557 5559 5561 5565 5568 5572 5576 5581 5585 5589 5593 5597 5604 5611 5621 5626 5633 5638 5644 5653 5659 5665 5669